Probability
0 0 0 0 0 0 0 0 0 0 0 0 0 0 0 0 0 0 0 0 0 0 0 0 0 0 0 0 1 3 5 4 2 2 2 3 3 3 3 4 5 6 5 4
0 0 0 0 0 0 0 0 0 0 0 0 0 0 0 0 0 0 0 0 0 0 0 0 0 0 0 0 1 2 3 2 1 1 2 2 3 3 3 3 4 5 5 4
0 0 0 0 0 0 0 0 0 0 0 0 0 0 0 0 0 0 0 0 0 0 0 0 0 0 0 0 0 1 1 1 0 0 1 2 2 2 2 3 3 4 5 4
0 0 0 0 0 0 0 0 0 0 0 0 0 0 0 0 0 0 0 0 0 0 0 0 0 0 0 0 0 0 0 0 0 0 0 1 2 2 2 3 3 3 3 3
0 0 0 0 0 0 0 0 0 0 0 0 0 0 0 0 0 0 0 0 0 0 0 0 0 0 0 0 0 0 0 0 0 0 0 0 1 1 2 3 3 3 2 2
0 0 0 0 0 0 0 0 0 0 0 0 0 0 0 0 0 0 0 0 0 0 0 0 0 0 0 0 0 0 0 0 0 0 0 0 0 1 2 3 3 3 2 1
0 0 0 0 0 0 0 0 0 0 0 0 0 0 0 0 0 0 0 0 0 0 0 0 0 0 0 0 0 0 0 0 0 0 0 0 0 1 2 3 3 3 2 1
0 0 0 0 0 0 0 0 0 0 0 0 0 0 0 0 0 0 0 0 0 0 0 0 0 0 0 0 0 0 0 1 1 1 0 0 0 0 1 1 3 3 2 1
0 0 0 0 0 0 0 0 0 0 0 0 0 0 0 0 0 0 0 0 0 0 0 0 0 0 0 0 0 0 0 1 2 2 1 0 0 0 0 1 2 2 2 1
0 0 0 0 0 0 0 0 0 0 0 0 0 0 0 0 0 0 0 0 0 0 0 0 0 0 0 0 0 0 1 2 3 3 2 1 0 0 0 0 1 1 1 0
0 0 0 0 0 0 0 0 0 0 0 0 0 0 0 0 0 0 0 0 0 0 0 0 0 0 0 0 0 0 2 3 3 3 3 2 1 1 0 0 0 0 0 0
0 0 0 0 0 0 0 0 0 0 0 0 0 0 0 0 0 0 0 0 0 0 0 0 0 0 0 0 0 0 1 2 3 3 3 3 3 2 1 0 0 0 0 0
0 0 0 0 0 0 0 0 0 0 0 0 0 0 0 0 0 0 0 0 0 0 0 0 0 0 0 0 0 0 0 1 2 3 3 3 3 2 1 0 0 0 0 0
0 0 0 0 0 0 0 0 0 0 0 0 0 0 0 0 0 0 0 0 0 0 0 0 0 0 0 0 0 0 0 0 1 3 3 3 3 2 0 0 0 0 0 0
0 0 0 0 0 0 0 0 0 0 0 0 0 0 0 0 0 0 0 0 0 0 0 0 0 0 0 0 0 0 0 0 1 2 2 2 2 1 0 0 0 0 0 0
0 0 0 0 0 0 0 0 0 0 0 0 0 0 0 0 0 0 0 0 0 0 0 0 0 0 0 0 0 0 0 0 0 1 1 1 1 1 0 0 0 0 0 0
0 0 0 0 0 0 0 0 0 0 0 0 0 0 0 0 0 0 0 0 0 0 0 0 0 0 0 0 0 0 0 0 0 0 0 0 0 0 0 0 0 0 0 0
0 0 0 0 0 0 0 0 0 0 0 0 0 0 0 0 0 0 0 0 0 0 0 0 0 0 0 0 0 0 0 0 0 0 0 0 0 0 0 0 0 0 0 0
0 0 0 0 0 0 0 0 0 0 0 0 0 0 0 0 0 0 0 0 0 0 0 0 0 0 0 0 0 0 0 0 0 0 0 0 0 0 0 0 0 0 0 0
0 0 0 0 0 0 0 0 0 0 0 0 0 0 0 0 0 0 0 0 0 0 0 0 0 0 0 0 0 0 0 0 0 0 0 0 0 0 0 0 0 0 0 0
0 0 0 0 0 0 0 0 0 0 0 0 0 0 0 0 0 0 0 0 0 0 0 0 0 0 0 0 0 0 0 0 0 0 0 0 0 0 0 0 0 0 0 0
0 0 0 0 0 0 0 0 0 0 0 0 0 0 0 0 0 0 0 0 0 0 0 0 0 0 0 0 0 0 0 0 0 0 0 0 0 0 0 0 0 0 0 0
0 0 0 0 0 0 0 0 0 0 0 0 0 0 0 0 0 0 0 0 0 0 0 0 0 0 0 0 0 0 0 0 0 0 0 0 0 0 0 0 0 0 0 0
0 0 0 0 0 0 0 0 0 0 0 0 0 0 0 0 0 0 0 0 0 0 0 0 0 0 0 0 0 0 0 0 0 0 0 0 0 0 0 0 0 0 0 0
0 0 0 0 0 0 0 0 0 0 0 0 0 0 0 0 0 0 0 0 0 0 0 0 0 0 0 0 0 0 0 0 0 0 0 0 0 0 0 0 0 0 0 0
0 0 0 0 0 0 0 0 0 0 0 0 0 0 0 0 0 0 0 0 0 0 0 0 0 0 0 0 0 0 0 0 0 0 0 0 0 0 0 0 0 0 0 0
Wind_Speed
3 3 1 3 4 3 3 4 9 10 6 6 11 17 17 11 7 8 7 7 8 9 8 8 8 9 8 7 8 8 8 7 5 4 3 4 5 4 5 6 8 9 8 8
3 2 4 2 2 2 3 5 8 9 4 7 10 16 13 9 7 6 6 7 8 9 9 9 9 8 8 8 9 8 7 7 6 5 4 4 5 5 5 5 7 9 9 9
3 3 0 1 1 2 4 6 7 8 9 5 8 11 6 5 3 4 5 6 7 8 9 10 10 10 9 9 9 8 8 8 7 6 4 4 4 4 4 5 5 8 10 11
3 3 1 1 3 3 6 5 6 7 6 6 3 9 8 5 7 6 7 6 8 8 8 9 10 11 10 10 9 9 8 8 7 5 4 5 6 7 7 5 5 7 9 11
4 1 1 3 4 4 6 4 4 4 2 4 2 4 12 4 7 7 7 7 7 8 8 9 10 10 11 9 9 8 8 8 7 6 5 5 7 7 6 5 6 7 8 10
5 2 3 4 2 2 2 3 1 3 3 4 4 4 11 5 6 6 5 7 8 9 9 9 9 10 10 9 9 8 9 9 8 7 6 6 8 9 8 7 7 6 6 7
5 3 2 1 1 2 4 5 6 7 5 7 2 5 13 8 6 6 8 9 9 9 9 10 11 11 11 11 10 9 9 10 9 8 8 8 9 9 9 9 7 7 6 6
2 5 2 1 2 2 1 4 4 3 6 7 4 9 11 7 6 6 7 8 8 9 9 10 10 10 10 11 11 10 10 10 10 9 9 9 9 6 7 8 7 7 6 7
4 6 2 1 1 4 3 2 3 3 2 6 9 9 13 5 6 6 6 7 9 10 10 10 10 10 10 11 11 10 10 10 10 10 10 10 8 7 7 7 6 6 6 6
6 5 4 2 1 0 3 5 4 3 2 7 9 7 8 7 8 7 7 8 9 9 10 11 10 10 10 9 10 9 9 10 10 9 9 9 8 8 8 6 6 6 6 6
4 4 4 2 5 7 4 3 4 3 4 4 8 11 8 8 8 8 9 9 10 10 11 10 10 10 10 9 9 9 9 10 9 9 9 9 8 8 7 6 6 6 6 7
5 4 5 7 3 2 5 6 7 5 6 5 6 14 6 7 7 7 9 9 10 10 10 10 11 10 9 9 9 9 9 10 10 9 9 9 8 7 7 6 6 6 7 7
7 4 3 4 2 0 3 4 5 4 3 6 8 15 4 4 7 8 9 11 11 11 11 10 9 9 9 9 9 9 9 10 10 9 8 8 7 7 7 7 6 6 7 8
6 6 8 10 7 5 5 6 7 7 7 9 15 20 18 14 14 14 12 12 11 11 11 10 10 9 9 9 9 10 10 10 10 9 8 8 8 8 7 7 6 6 7 7
5 6 8 11 10 8 11 12 12 15 14 14 17 19 24 19 14 13 12 12 12 11 11 10 10 10 9 9 9 9 10 10 10 8 8 9 9 7 6 6 5 5 5 6
5 5 4 9 9 11 17 18 18 19 17 20 22 26 22 16 11 11 12 11 12 12 12 11 11 10 10 10 10 10 10 10 9 9 9 9 9 7 6 5 4 4 4 4
5 4 3 7 4 6 14 14 15 11 11 11 18 19 13 11 12 11 10 10 11 12 11 11 10 9 9 9 9 9 10 10 9 9 9 9 9 8 6 5 4 4 3 2
7 6 4 4 2 12 10 4 7 10 12 13 14 14 12 12 11 10 9 10 10 10 10 9 9 9 9 8 8 9 9 9 9 9 9 9 9 8 7 5 4 4 2 2
9 8 5 4 6 13 10 5 6 7 11 12 14 15 13 9 7 9 8 7 8 9 8 8 8 8 8 8 8 8 9 8 8 9 10 10 9 8 7 6 5 4 4 3
5 6 6 5 6 11 9 3 4 2 9 8 8 11 9 3 5 9 7 6 8 8 7 7 7 6 7 8 7 7 8 9 9 9 9 9 8 8 7 6 6 4 3 4
5 6 10 10 10 13 8 4 5 4 10 4 5 7 6 6 9 9 8 7 7 7 8 7 6 6 6 6 6 7 8 9 9 9 9 9 8 7 6 6 4 4 4 4
11 9 9 7 9 14 6 8 10 11 4 3 5 5 7 9 10 9 9 9 8 8 7 6 6 6 6 5 5 7 8 9 8 8 8 9 8 6 6 6 5 3 3 3
11 12 9 12 13 6 7 9 7 3 5 6 6 7 7 8 9 9 8 8 8 7 7 5 5 6 6 5 4 7 8 8 8 8 8 8 8 6 5 5 4 3 3 3
7 5 5 8 12 9 8 8 8 7 8 8 7 7 6 8 9 9 8 7 7 7 6 5 5 6 6 6 5 6 8 8 7 8 8 7 7 7 6 5 3 3 2 3
8 7 6 10 9 7 9 10 11 9 8 8 8 7 7 7 8 7 7 7 6 6 5 4 4 5 6 6 6 6 6 7 7 7 7 7 6 6 6 5 4 4 3 3
8 10 10 12 9 8 8 6 6 7 8 8 7 7 6 6 7 7 7 6 5 5 5 5 5 6 6 6 7 7 6 6 6 7 6 5 5 5 5 5 5 5 5 7
Wind_Direction
33 66 219 224 195 203 213 240 269 269 274 288 270 278 285 287 282 280 288 297 301 302 300 306 309 311 310 308 305 294 294 294 289 281 263 257 253 241 234 232 227 220 221 215
38 268 239 211 208 226 233 266 273 285 291 290 284 283 277 273 259 260 279 290 298 305 312 314 315 315 317 314 307 302 297 295 284 269 259 249 259 247 238 237 230 222 221 214
206 246 219 177 248 266 255 235 256 280 314 310 314 297 281 284 266 277 279 284 294 296 303 311 316 316 317 314 307 304 303 296 288 278 275 272 268 260 246 243 235 226 223 216
251 269 256 240 248 211 274 246 257 287 319 303 10 303 287 286 298 291 293 299 298 300 302 308 314 315 311 306 307 303 300 296 293 285 274 262 257 258 251 240 238 233 224 218
261 241 217 241 243 199 247 287 282 284 239 296 278 254 284 304 288 288 292 297 300 299 299 302 304 303 303 305 308 304 303 305 303 296 280 271 263 261 258 241 235 232 228 219
257 258 222 230 275 205 281 339 9 54 68 291 244 214 281 257 247 281 291 299 301 303 304 301 302 304 306 311 311 311 311 311 306 297 290 273 269 267 259 247 240 235 230 221
314 283 241 184 5 20 48 45 4 351 353 262 254 241 256 258 246 254 279 292 299 302 307 311 312 313 313 315 314 314 312 309 310 307 298 285 272 265 255 246 240 241 232 224
304 290 237 188 178 182 151 128 145 255 273 292 295 250 258 264 270 265 271 282 298 305 307 305 306 308 309 310 310 310 310 308 310 309 303 291 280 266 256 245 240 237 235 228
192 262 300 228 219 146 144 173 161 157 286 283 272 280 295 275 285 282 285 295 299 301 303 305 308 308 307 308 305 303 304 307 308 306 306 295 283 273 267 261 251 243 242 234
167 255 282 307 89 162 161 147 112 139 267 282 285 270 261 282 284 293 293 292 294 299 301 305 307 304 302 300 301 302 302 304 302 304 304 302 290 278 270 257 251 250 244 244
154 202 293 312 203 191 145 153 157 169 192 225 282 272 231 241 259 274 282 285 290 296 300 301 302 301 300 305 306 305 308 308 308 307 306 304 295 288 277 257 249 245 242 243
172 161 256 250 242 188 181 186 163 186 232 215 251 271 253 240 256 271 283 291 297 298 298 298 300 303 306 309 311 312 313 312 309 308 307 306 299 295 287 271 259 245 241 244
155 160 290 316 329 159 215 207 192 184 194 215 236 266 280 292 295 288 290 297 301 304 302 303 305 307 308 309 310 313 314 312 311 313 311 309 307 294 285 280 267 254 244 242
156 187 208 232 238 193 224 224 198 189 221 239 238 262 282 291 294 296 295 295 298 299 300 303 306 307 307 307 309 311 312 314 319 322 319 310 307 300 288 282 274 261 249 242
171 229 235 253 262 251 246 243 220 218 224 239 257 263 274 280 284 288 290 294 299 299 301 302 304 306 308 311 312 314 314 317 320 323 320 312 308 303 299 287 276 265 257 247
188 237 245 264 253 255 264 255 240 238 237 244 260 270 270 277 281 282 285 290 293 293 296 299 304 308 310 311 313 315 316 317 323 324 320 321 324 318 314 305 295 284 269 252
193 201 241 271 284 295 264 241 227 224 218 219 243 256 277 286 283 282 286 288 285 287 292 297 302 303 305 307 310 314 315 318 322 323 326 327 327 322 319 316 311 300 284 264
187 189 222 269 313 251 248 207 209 228 243 229 243 260 270 269 280 280 273 271 279 284 289 295 299 302 305 307 313 316 320 322 323 326 327 328 326 321 320 321 318 316 304 289
193 190 210 225 251 273 281 237 195 213 261 235 239 258 267 278 299 287 267 256 263 273 279 284 289 294 303 309 316 321 325 327 328 328 326 327 324 320 323 325 321 325 325 308
182 190 207 212 232 252 256 225 184 136 277 251 224 248 265 293 300 289 292 281 278 281 283 288 296 302 306 311 320 323 323 327 325 322 319 321 322 318 319 317 315 321 319 306
166 197 216 225 241 261 252 185 134 199 252 256 214 238 246 232 242 273 296 291 285 287 290 295 299 298 299 309 320 320 319 319 316 317 317 319 322 317 316 318 316 322 322 322
182 186 200 198 223 250 204 153 193 225 253 266 259 252 252 258 273 285 289 289 293 295 298 301 299 298 303 312 319 315 312 311 318 320 317 317 319 319 327 325 320 327 331 329
202 195 191 200 220 240 182 204 227 237 256 263 262 268 266 272 279 286 288 287 290 291 295 298 293 298 305 311 313 306 308 316 321 323 322 320 320 319 325 323 322 330 341 327
231 202 205 243 255 254 252 259 264 255 253 261 263 269 267 267 278 284 285 289 291 291 294 302 304 303 306 313 311 301 309 316 319 321 321 322 324 325 327 324 320 323 322 315
211 186 214 248 264 279 261 247 251 257 258 262 266 265 263 267 275 277 281 284 286 291 298 298 293 292 298 309 310 311 315 319 320 319 318 322 324 324 322 320 316 310 289 301
198 193 204 238 233 225 252 254 247 249 257 262 268 275 271 258 269 277 277 278 283 289 296 300 298 297 300 305 305 310 315 317 317 318 317 319 321 322 317 316 323 324 313 324